User: anonymous   Login
Location: Shenandoah County Park
(38.9356°N, 78.4524°W)
Time: 05:15:51
(UTC-04:00)
Language:

CAS-4B - Orbit

View from above orbital plane
View from above orbital plane
View from above satellite
View from above satellite

Ground track
Ground track

The orbit data is extracted from the following two-line orbital elements,

1 42759U 17034B   24149.82727978  .00012781  00000-0  47192-3 0  9997
2 42759  43.0199 335.9259 0013061 225.8365 134.1414 15.27598689384444
Epoch (UTC): 28 May 2024 19:51:16
Eccentricity: 0.0013061
inclination: 43.0199°
perigee height: 474 km
apogee height: 492 km
right ascension of ascending node: 335.9259°
argument of perigee: 225.8365°
revolutions per day: 15.27598689
mean anomaly at epoch: 134.1414°
orbit number at epoch: 38444

The dashed part of the orbit path shows where the satellite is in the earth's shadow,  

DLR